Rogers City, MI

9:45 AM EST on February 06, 2016 (GMT -0500)
Presque Isle County

Weather History for KPZQ - November, 2012

Change the Weather History Date:

Tuesday, November 13, 2012

  Actual Average (KAPN) Record (KAPN)
Temperature  
Mean Temperature 32 °F 37 °F  
Max Temperature 38 °F 44 °F 63 °F (1930)
Min Temperature 25 °F 29 °F 7 °F (1983)
Degree Days  
Heating Degree Days 34 28  
Month to date heating degree days 342  
Since 1 July heating degree days 1286  
Moisture  
Dew Point 24 °F    
Average Humidity 76    
Maximum Humidity 86    
Minimum Humidity 65    
Precipitation  
Precipitation 0.00 in 0.07 in 0.68 in (1925)
Month to date precipitation 0.92  
Year to date precipitation 25.23  
Snow  
Snow 0.00 in 0.20 in 3.70 in (1959)
Month to date snowfall 2.0  
Since 1 July snowfall 2.4  
Snow Depth -    
Sea Level Pressure  
Sea Level Pressure 30.34 in    
Wind  
Wind Speed 8 mph (SW)    
Max Wind Speed 13 mph    
Max Gust Speed 17 mph    
Visibility 9 miles    
Events Snow    
T = Trace of Precipitation, MM = Missing Value Source: NWS Daily Summary

Daily Weather History Graph

Daily Weather History Graph

Search for Another Location

Airport or City:

Trip Planner

Search our weather history database for the weather conditions in past years. The results will help you decide how hot, cold, wet, or windy it might be!

Date:

Astronomy

Nov. 13, 2012 Rise Set
Actual Time 7:31 AM EST 5:06 PM EST
Civil Twilight 7:00 AM EST 5:38 PM EST
Nautical Twilight 6:24 AM EST 6:14 PM EST
Astronomical Twilight 5:49 AM EST 6:49 PM EST
Moon 7:09 AM EST (11/13) 4:57 PM EST (11/13)
Length of Visible Light 10h 38m
Length of Day
9h 34m
Waning Crescent, 0% of the Moon is Illuminated
Nov 13
Waning Crescent
Nov 13
New
Nov 20
First Quarter
Nov 28
Full
Dec 6
Last Quarter

Hourly Weather History & Observations

Time (EST) Temp. Windchill Dew Point Humidity Pressure Visibility Wind Dir Wind Speed Gust Speed Precip Events Conditions
12:15 AM 28.4 °F 21.2 °F 23.7 °F 83% 30.13 in 1.0 mi West 6.9 mph 16.1 mph N/A Snow Snow
12:34 AM 28.0 °F 20.8 °F 24.3 °F 86% 30.13 in 1.2 mi West 6.9 mph - N/A Snow Light Snow
12:54 AM 27.5 °F 19.3 °F 23.9 °F 86% 30.13 in 1.0 mi WSW 8.1 mph - N/A Snow Light Snow
1:15 AM 27.5 °F 19.3 °F 23.7 °F 86% 30.14 in 4.0 mi SW 8.1 mph - N/A Snow Light Snow
1:34 AM 27.5 °F 18.0 °F 23.5 °F 85% 30.15 in 5.0 mi SW 10.4 mph - N/A Snow Light Snow
1:54 AM 27.5 °F 17.4 °F 23.4 °F 84% 30.15 in 4.0 mi SW 11.5 mph 16.1 mph N/A Snow Light Snow
2:14 AM 27.5 °F 18.0 °F 23.2 °F 84% 30.16 in 3.0 mi SW 10.4 mph 17.3 mph N/A Snow Light Snow
2:34 AM 27.5 °F 18.6 °F 23.0 °F 83% 30.17 in 5.0 mi SW 9.2 mph - N/A Snow Light Snow
2:55 AM 26.8 °F 17.7 °F 22.5 °F 84% 30.17 in 10.0 mi SW 9.2 mph - N/A Snow Light Snow
3:14 AM 26.6 °F 17.5 °F 22.1 °F 83% 30.18 in 10.0 mi SW 9.2 mph - N/A Snow Light Snow
3:35 AM 27.0 °F 17.3 °F 22.5 °F 83% 30.18 in 10.0 mi SW 10.4 mph 16.1 mph N/A   Scattered Clouds
3:55 AM 26.6 °F 18.2 °F 21.7 °F 82% 30.18 in 10.0 mi SW 8.1 mph - N/A Snow Light Snow
4:14 AM 26.6 °F 19.1 °F 21.9 °F 82% 30.19 in 10.0 mi SW 6.9 mph - N/A Snow Light Snow
4:35 AM 26.6 °F 17.5 °F 21.9 °F 82% 30.20 in 10.0 mi SW 9.2 mph - N/A   Scattered Clouds
4:54 AM 26.6 °F 16.8 °F 22.1 °F 83% 30.21 in 10.0 mi SW 10.4 mph - N/A   Mostly Cloudy
5:14 AM 26.4 °F 18.9 °F 21.6 °F 82% 30.22 in 10.0 mi SSW 6.9 mph - N/A   Mostly Cloudy
5:35 AM 26.4 °F 18.9 °F 21.4 °F 81% 30.23 in 10.0 mi SW 6.9 mph - N/A   Mostly Cloudy
5:54 AM 26.4 °F 18.0 °F 21.6 °F 82% 30.23 in 10.0 mi SW 8.1 mph - N/A   Scattered Clouds
6:14 AM 26.2 °F 17.8 °F 21.7 °F 83% 30.25 in 10.0 mi SW 8.1 mph - N/A   Clear
6:34 AM 26.4 °F 18.0 °F 21.9 °F 83% 30.25 in 10.0 mi SW 8.1 mph - N/A   Clear
7:15 AM 26.6 °F 17.5 °F 22.1 °F 83% 30.27 in 10.0 mi SW 9.2 mph - N/A   Clear
7:34 AM 26.6 °F 18.2 °F 22.1 °F 83% 30.28 in 10.0 mi SW 8.1 mph - N/A   Clear
7:54 AM 26.6 °F 18.2 °F 22.1 °F 83% 30.29 in 10.0 mi SSW 8.1 mph - N/A   Clear
8:15 AM 26.8 °F 19.3 °F 22.1 °F 83% 30.30 in 10.0 mi SSW 6.9 mph - N/A   Clear
8:34 AM 27.5 °F 19.3 °F 22.6 °F 82% 30.30 in 10.0 mi SSW 8.1 mph - N/A   Clear
8:55 AM 28.9 °F 20.4 °F 23.0 °F 78% 30.31 in 10.0 mi SW 9.2 mph - N/A   Clear
9:14 AM 30.2 °F 21.3 °F 23.4 °F 76% 30.32 in 10.0 mi SW 10.4 mph - N/A   Clear
9:34 AM 31.3 °F 23.3 °F 23.7 °F 74% 30.33 in 10.0 mi SW 9.2 mph - N/A   Clear
9:55 AM 32.2 °F 23.8 °F 24.3 °F 73% 30.33 in 10.0 mi WSW 10.4 mph - N/A   Clear
10:14 AM 33.3 °F 25.7 °F 24.8 °F 71% 30.34 in 10.0 mi WSW 9.2 mph 16.1 mph N/A   Clear
10:34 AM 34.5 °F 27.9 °F 25.5 °F 70% 30.35 in 10.0 mi WSW 8.1 mph - N/A   Clear
10:55 AM 35.1 °F 26.9 °F 25.5 °F 68% 30.35 in 10.0 mi WSW 11.5 mph 16.1 mph N/A   Clear
11:14 AM 35.8 °F 28.8 °F 26.2 °F 68% 30.36 in 10.0 mi West 9.2 mph - N/A   Clear
11:35 AM 36.7 °F 28.9 °F 26.1 °F 65% 30.36 in 10.0 mi West 11.5 mph - N/A   Clear
11:54 AM 37.4 °F 32.1 °F 27.0 °F 66% 30.36 in 10.0 mi West 6.9 mph - N/A   Clear
12:14 PM 38.5 °F 32.1 °F 27.5 °F 65% 30.36 in 10.0 mi West 9.2 mph 16.1 mph N/A   Mostly Cloudy
12:35 PM 37.6 °F 32.3 °F 27.3 °F 66% 30.36 in 10.0 mi West 6.9 mph - N/A   Overcast
12:54 PM 37.6 °F 30.5 °F 27.1 °F 66% 30.36 in 10.0 mi West 10.4 mph - N/A   Overcast
1:14 PM 37.4 °F 30.8 °F 27.0 °F 66% 30.37 in 10.0 mi West 9.2 mph - N/A   Overcast
1:54 PM 37.0 °F 29.8 °F 27.3 °F 68% 30.37 in 10.0 mi West 10.4 mph - N/A   Mostly Cloudy
2:14 PM 37.0 °F 30.4 °F 27.1 °F 67% 30.38 in 10.0 mi WSW 9.2 mph - N/A   Mostly Cloudy
2:34 PM 37.9 °F 30.9 °F 27.3 °F 66% 30.38 in 10.0 mi WSW 10.4 mph - N/A   Mostly Cloudy
2:55 PM 36.9 °F 30.1 °F 26.6 °F 66% 30.38 in 10.0 mi WSW 9.2 mph - N/A   Scattered Clouds
3:14 PM 37.2 °F 30.0 °F 26.6 °F 65% 30.39 in 10.0 mi WSW 10.4 mph 17.3 mph N/A   Scattered Clouds
3:34 PM 37.0 °F 28.9 °F 26.6 °F 66% 30.39 in 10.0 mi WSW 12.7 mph 16.1 mph N/A   Clear
3:55 PM 37.0 °F 31.0 °F 26.4 °F 65% 30.40 in 10.0 mi WSW 8.1 mph - N/A   Clear
4:14 PM 36.7 °F 28.9 °F 26.1 °F 65% 30.40 in 10.0 mi SW 11.5 mph - N/A   Clear
4:35 PM 35.1 °F 29.3 °F 25.5 °F 68% 30.41 in 10.0 mi WSW 6.9 mph - N/A   Clear
4:54 PM 34.3 °F 28.4 °F 25.5 °F 70% 30.42 in 10.0 mi West 6.9 mph - N/A   Clear
5:14 PM 32.9 °F 26.7 °F 24.8 °F 72% 30.42 in 10.0 mi WSW 6.9 mph - N/A   Clear
5:35 PM 32.0 °F 26.4 °F 24.8 °F 75% 30.43 in 10.0 mi SW 5.8 mph - N/A   Clear
5:54 PM 31.6 °F 27.0 °F 24.3 °F 74% 30.43 in 10.0 mi SW 4.6 mph - N/A   Clear
6:14 PM 30.7 °F 26.0 °F 23.9 °F 76% 30.44 in 10.0 mi SW 4.6 mph - N/A   Clear
6:35 PM 30.4 °F 25.6 °F 23.5 °F 76% 30.45 in 10.0 mi SSW 4.6 mph - N/A   Clear
6:54 PM 30.2 °F 26.7 °F 23.7 °F 77% 30.45 in 10.0 mi SSW 3.5 mph - N/A   Clear
7:14 PM 30.0 °F 25.2 °F 23.4 °F 76% 30.45 in 10.0 mi SW 4.6 mph - N/A   Clear
7:35 PM 29.3 °F 24.3 °F 23.2 °F 78% 30.46 in 10.0 mi SW 4.6 mph - N/A   Clear
7:54 PM 29.3 °F 23.2 °F 23.0 °F 77% 30.47 in 10.0 mi SW 5.8 mph - N/A   Clear
8:15 PM 29.8 °F 23.9 °F 23.0 °F 76% 30.47 in 10.0 mi SW 5.8 mph - N/A   Clear
8:34 PM 29.7 °F 24.7 °F 22.6 °F 75% 30.47 in 10.0 mi SW 4.6 mph - N/A   Clear
8:54 PM 28.9 °F 23.9 °F 22.1 °F 76% 30.48 in 10.0 mi SSW 4.6 mph - N/A   Clear
9:15 PM 28.8 °F 23.7 °F 22.3 °F 77% 30.48 in 10.0 mi SSW 4.6 mph - N/A   Clear
9:34 PM 28.8 °F 22.6 °F 22.1 °F 76% 30.49 in 10.0 mi SW 5.8 mph - N/A   Clear
9:54 PM 28.8 °F 23.7 °F 22.1 °F 76% 30.49 in 10.0 mi SSW 4.6 mph - N/A   Clear
10:15 PM 28.6 °F 23.5 °F 22.1 °F 77% 30.49 in 10.0 mi South 4.6 mph - N/A   Clear
10:34 PM 28.8 °F 25.0 °F 22.1 °F 76% 30.49 in 10.0 mi South 3.5 mph - N/A   Clear
10:54 PM 27.5 °F 23.6 °F 21.7 °F 79% 30.49 in 10.0 mi South 3.5 mph - N/A   Clear
11:15 PM 25.9 °F 21.7 °F 20.5 °F 80% 30.49 in 10.0 mi South 3.5 mph - N/A   Clear
11:34 PM 27.7 °F 23.8 °F 21.2 °F 77% 30.50 in 10.0 mi SSW 3.5 mph - N/A   Clear
11:55 PM 27.3 °F 23.4 °F 20.8 °F 77% 30.50 in 10.0 mi SSW 3.5 mph - N/A   Clear